IRIDIUM 8 [+] 1 24792U 97020A 09182.28480886 .00000255 00000-0 84081-4 0 6653 2 24792 86.3960 94.0626 0002407 78.6118 281.5345 14.34217206636406 IRIDIUM 7 [+] 1 24793U 97020B 09182.27846378 -.00000645 00000-0 -23756-3 0 6673 2 24793 86.3948 94.1989 0002398 79.1756 280.9703 14.34216688636403 IRIDIUM 6 [+] 1 24794U 97020C 09182.27212270 .00000167 00000-0 52588-4 0 4640 2 24794 86.3952 94.1894 0002622 78.6550 281.4935 14.34217078636407 IRIDIUM 5 [+] 1 24795U 97020D 09182.33555344 .00000199 00000-0 64118-4 0 8034 2 24795 86.3943 94.3198 0003555 67.6616 292.4973 14.34216802636491 IRIDIUM 4 [+] 1 24796U 97020E 09182.43068511 .00000263 00000-0 86769-4 0 6857 2 24796 86.3962 93.9036 0002421 80.4150 279.7320 14.34217552636448 IRIDIUM 914 [-] 1 24836U 97030A 09181.90886537 -.00000774 00000-0 -26596-3 0 2508 2 24836 86.3944 118.4999 0001598 28.6834 331.4491 14.37425389630992 IRIDIUM 12 [+] 1 24837U 97030B 09182.35169393 .00000188 00000-0 60082-4 0 6851 2 24837 86.3979 125.4950 0002446 78.7813 281.3651 14.34215178630162 IRIDIUM 10 [+] 1 24839U 97030D 09182.40875024 .00000178 00000-0 56485-4 0 6811 2 24839 86.3979 125.4684 0002462 79.2321 280.9151 14.34216688630185 IRIDIUM 13 [+] 1 24840U 97030E 09182.35800157 -.00000142 00000-0 -57931-4 0 6429 2 24840 86.3983 125.5645 0002439 80.2848 279.8615 14.34215233630165 IRIDIUM 16 [-] 1 24841U 97030F 09182.39485799 .00000156 00000-0 47550-4 0 6671 2 24841 86.4058 126.0882 0004451 77.9589 282.2102 14.35287597630319 IRIDIUM 911 [-] 1 24842U 97030G 09182.78863078 .00000085 00000-0 19322-4 0 3365 2 24842 86.4474 128.1246 0016297 19.2721 340.9101 14.43175368633390 IRIDIUM 15 [+] 1 24869U 97034A 09182.48829786 .00000004 00000-0 -55149-5 0 7042 2 24869 86.3989 157.0661 0002462 77.1721 282.9749 14.34213275627153 IRIDIUM 17 [-] 1 24870U 97034B 09182.43361161 .00000063 00000-0 15295-4 0 6788 2 24870 86.3985 156.9897 0002622 78.5422 281.6080 14.34436900627168 IRIDIUM 920 [-] 1 24871U 97034C 09182.40864133 .00000129 00000-0 36041-4 0 2739 2 24871 86.4001 150.0937 0012109 162.7614 197.3988 14.38067008628275 IRIDIUM 18 [+] 1 24872U 97034D 09182.45023504 .00000018 00000-0 -51298-6 0 6694 2 24872 86.3991 157.2248 0002669 81.0087 279.1406 14.34213711627143 IRIDIUM 921 [-] 1 24873U 97034E 09183.17903064 .00000084 00000-0 44908-5 0 6100 2 24873 86.3868 344.1234 0010302 119.1752 241.0503 14.97161581651457 IRIDIUM 26 [+] 1 24903U 97043A 09182.50623902 .00000015 00000-0 -17289-5 0 7793 2 24903 86.3944 30.7864 0002350 81.0517 279.0951 14.34219652621092 IRIDIUM 25 [+] 1 24904U 97043B 09182.53795260 .00000007 00000-0 -44832-5 0 6709 2 24904 86.3945 30.7221 0002345 78.4988 281.6492 14.34219653621064 IRIDIUM 46 [+] 1 24905U 97043C 09182.55063537 -.00000011 00000-0 -10967-4 0 6872 2 24905 86.3939 30.9994 0002328 82.6899 277.4574 14.34219740621078 IRIDIUM 23 [+] 1 24906U 97043D 09182.52526977 .00000012 00000-0 -28201-5 0 6873 2 24906 86.3942 30.6611 0002368 78.1059 282.0416 14.34219427621077 IRIDIUM 22 [+] 1 24907U 97043E 09182.51891942 -.00000033 00000-0 -18725-4 0 6581 2 24907 86.3953 31.0597 0002286 79.0255 281.1205 14.34219769621070 DUMMY MASS 1 [-] 1 24925U 97048A 09182.02465161 .00000036 00000-0 10478-5 0 2475 2 24925 86.3343 302.5353 0004918 219.3734 140.7143 14.83828770640180 DUMMY MASS 2 [-] 1 24926U 97048B 09182.90416601 .00000074 00000-0 55789-5 0 2418 2 24926 86.3346 302.7800 0005709 223.4102 136.6690 14.83610201640221 IRIDIUM 29 [+] 1 24944U 97051A 09182.38920584 -.00000387 00000-0 -14543-3 0 6373 2 24944 86.3938 62.4204 0002355 78.7559 281.3903 14.34215908617621 IRIDIUM 32 [+] 1 24945U 97051B 09182.19892803 -.00000190 00000-0 -74914-4 0 6398 2 24945 86.3937 62.5146 0002363 76.5304 283.6152 14.34215734617617 IRIDIUM 33 [-] 1 24946U 97051C 09182.37606545 .00000088 00000-0 25297-4 0 7277 2 24946 86.3844 62.4921 0008577 3.2841 356.8405 14.32482004617620 IRIDIUM 28 [-] 1 24948U 97051E 09182.30791179 .00000073 00000-0 18941-4 0 5023 2 24948 86.3938 62.6125 0002788 72.6342 287.5155 14.34261591617606 IRIDIUM 30 [+] 1 24949U 97051F 09182.19258483 -.00000193 00000-0 -75840-4 0 6800 2 24949 86.3948 62.5707 0002424 82.3500 277.7970 14.34215919617591 IRIDIUM 31 [+] 1 24950U 97051G 09182.18624279 -.00000277 00000-0 -10606-3 0 6633 2 24950 86.3949 62.5655 0002408 80.4720 279.6749 14.34215781617605 IRIDIUM 19 [+] 1 24965U 97056A 09182.31017796 .00000193 00000-0 61763-4 0 6411 2 24965 86.3946 94.0284 0002451 77.2011 282.9457 14.34217156615767 IRIDIUM 35 [+] 1 24966U 97056B 09182.32286700 .00000233 00000-0 76283-4 0 6863 2 24966 86.3963 94.0472 0002449 76.8582 283.2886 14.34216871615742 IRIDIUM 36 [-] 1 24967U 97056C 09182.30446022 -.00000074 00000-0 -33531-4 0 6186 2 24967 86.3967 94.1222 0002427 78.8204 281.3263 14.34295831615886 IRIDIUM 37 [+] 1 24968U 97056D 09182.29748992 .00000198 00000-0 63531-4 0 6511 2 24968 86.3958 94.1575 0002389 76.1719 283.9734 14.34217420615741 IRIDIUM 34 [+] 1 24969U 97056E 09182.31652112 .00000219 00000-0 71112-4 0 6386 2 24969 86.3966 94.0946 0002405 74.4841 285.6619 14.34217071615741 IRIDIUM 43 [+] 1 25039U 97069A 09182.44388231 .00000028 00000-0 30545-5 0 6363 2 25039 86.3995 157.2467 0002475 78.5150 281.6323 14.34214352609545 IRIDIUM 41 [+] 1 25040U 97069B 09182.43756233 -.00000008 00000-0 -10031-4 0 6294 2 25040 86.3977 157.1597 0002519 78.8581 281.2892 14.34213551609547 IRIDIUM 40 [+] 1 25041U 97069C 09182.46292831 .00000065 00000-0 16014-4 0 6543 2 25041 86.3990 157.1168 0002478 78.4152 281.7318 14.34213858609561 IRIDIUM 39 [+] 1 25042U 97069D 09182.46924638 -.00000676 00000-0 -24841-3 0 6277 2 25042 86.3992 157.2726 0002675 77.6264 282.5218 14.34215377609543 IRIDIUM 38 [-] 1 25043U 97069E 09182.46475691 .00000149 00000-0 45578-4 0 6531 2 25043 86.3986 156.5244 0003399 77.5746 282.5827 14.34701730609653 IRIDIUM 42 [+] 1 25077U 97077A 09182.45658267 .00000046 00000-0 93496-5 0 6414 2 25077 86.3992 157.1957 0002487 78.9541 281.1930 14.34213833605401 IRIDIUM 44 [-] 1 25078U 97077B 09182.97356150 .00000085 00000-0 22217-4 0 1496 2 25078 86.3978 152.4809 0004153 75.5033 284.6629 14.36555164606054 IRIDIUM 45 [+] 1 25104U 97082A 09182.54429410 .00000005 00000-0 -54238-5 0 5862 2 25104 86.3940 30.7427 0002366 79.6671 280.4801 14.34219691603619 IRIDIUM 24 [-] 1 25105U 97082B 09183.08695570 .00000071 00000-0 16668-4 0 2037 2 25105 86.3898 21.1250 0011303 168.0188 192.1284 14.38267120604795 IRIDIUM 47 [+] 1 25106U 97082C 09182.55697834 .00000047 00000-0 97846-5 0 5814 2 25106 86.3940 30.6795 0002380 79.5810 280.5661 14.34219923603611 IRIDIUM 49 [+] 1 25108U 97082E 09182.56966916 .00000004 00000-0 -55221-5 0 5979 2 25108 86.3942 30.6954 0002336 79.7310 280.4149 14.34219286603623 IRIDIUM 52 [+] 1 25169U 98010A 09182.38972220 .00000191 00000-0 61309-4 0 3802 2 25169 86.3988 125.6391 0002472 77.8339 282.3130 14.34216886595007 IRIDIUM 56 [+] 1 25170U 98010B 09182.80199453 -.00000115 00000-0 00000+0 0 4220 2 25170 86.3972 125.5106 0002415 77.7666 282.4283 14.34213867595044 IRIDIUM 54 [+] 1 25171U 98010C 09182.34531658 .00000028 00000-0 30575-5 0 6081 2 25171 86.3985 125.6614 0002441 80.1425 280.0041 14.34214357595146 IRIDIUM 50 [+] 1 25172U 98010D 09182.37703028 -.00000076 00000-0 -34372-4 0 6305 2 25172 86.3986 125.6193 0002427 81.7951 278.3518 14.34214127594980 IRIDIUM 53 [+] 1 25173U 98010E 09182.39605837 -.00000074 00000-0 -33608-4 0 6148 2 25173 86.3983 125.6208 0002457 81.0623 279.0851 14.34214051594992 IRIDIUM 51 [S] 1 25262U 98018A 09182.34490018 -.00000955 00000-0 -29196-3 0 7238 2 25262 86.4462 94.1894 0002504 82.0695 278.0792 14.42947775593412 IRIDIUM 61 [+] 1 25263U 98018B 09182.30383461 .00000316 00000-0 10576-3 0 5710 2 25263 86.3963 94.1314 0002451 78.1164 282.0303 14.34217415590077 IRIDIUM 55 [+] 1 25272U 98019A 09183.21374206 -.00000332 00000-0 -12579-3 0 5725 2 25272 86.3948 62.0217 0002353 79.0739 281.0719 14.34216068589403 IRIDIUM 57 [+] 1 25273U 98019B 09182.42091777 -.00000345 00000-0 -13029-3 0 6026 2 25273 86.3951 62.5319 0002381 79.6010 280.5456 14.34217585589299 IRIDIUM 58 [+] 1 25274U 98019C 09182.42726136 -.00000385 00000-0 -14448-3 0 4120 2 25274 86.3954 62.6405 0002397 77.2359 282.9106 14.34215341589293 IRIDIUM 59 [+] 1 25275U 98019D 09182.22429738 -.00000065 00000-0 -30193-4 0 2575 2 25275 86.3950 62.7364 0002433 61.6551 298.4889 14.34217749589268 IRIDIUM 60 [+] 1 25276U 98019E 09183.20740021 -.00000176 00000-0 -69918-4 0 6389 2 25276 86.3944 62.0572 0002377 78.8523 281.2938 14.34216072589401 IRIDIUM 62 [+] 1 25285U 98021A 09182.54091850 -.00000116 00000-0 -48322-4 0 5948 2 25285 86.3953 359.1582 0002274 80.5491 279.5955 14.34212386588268 IRIDIUM 63 [+] 1 25286U 98021B 09182.54726127 -.00000063 00000-0 -29678-4 0 6081 2 25286 86.3953 359.2408 0002376 80.1758 279.9705 14.34212540588261 IRIDIUM 64 [+] 1 25287U 98021C 09182.55360495 -.00000051 00000-0 -25125-4 0 5602 2 25287 86.3952 359.1746 0002310 80.4929 279.6520 14.34212484588243 IRIDIUM 65 [+] 1 25288U 98021D 09182.55994752 -.00000080 00000-0 -35732-4 0 6026 2 25288 86.3952 359.1245 0002664 81.8791 278.2702 14.34212403588262 IRIDIUM 66 [+] 1 25289U 98021E 09182.49651985 -.00000056 00000-0 -27215-4 0 5577 2 25289 86.3946 359.0792 0002329 82.5733 277.5717 14.34212638588251 IRIDIUM 67 [+] 1 25290U 98021F 09182.50286482 -.00000070 00000-0 -32156-4 0 3841 2 25290 86.3946 359.1677 0002302 80.6812 279.4641 14.34212311588260 IRIDIUM 68 [+] 1 25291U 98021G 09182.50920632 -.00000072 00000-0 -32933-4 0 5997 2 25291 86.3945 359.2304 0002337 79.7879 280.3567 14.34212383588232 IRIDIUM 69 [-] 1 25319U 98026A 09182.08417817 .00000077 00000-0 19120-4 0 4335 2 25319 86.3954 27.3365 0004135 80.1924 279.9741 14.37092495585179 IRIDIUM 71 [-] 1 25320U 98026B 09183.09457831 .00000063 00000-0 14305-4 0 1364 2 25320 86.3946 24.3162 0002885 119.0552 241.0940 14.37681396585606 IRIDIUM 70 [+] 1 25342U 98032A 09182.53457321 -.00000025 00000-0 -16056-4 0 6154 2 25342 86.3958 359.3275 0002283 80.2459 279.8989 14.34212851582349 IRIDIUM 72 [+] 1 25343U 98032B 09182.52189225 -.00000066 00000-0 -30769-4 0 6016 2 25343 86.3947 359.1335 0002329 81.3040 278.8409 14.34212429582349 IRIDIUM 73 [-] 1 25344U 98032C 09182.42775642 .00000060 00000-0 10859-4 0 4872 2 25344 86.4414 349.6117 0003134 65.4365 294.7173 14.47130356586789 IRIDIUM 74 [S] 1 25345U 98032D 09182.50392326 -.00000085 00000-0 -31422-4 0 6304 2 25345 86.4462 359.2904 0002298 82.1126 278.0320 14.42948250583450 IRIDIUM 75 [+] 1 25346U 98032E 09182.52823229 -.00000054 00000-0 -26294-4 0 6327 2 25346 86.3951 359.2793 0002288 76.7395 283.4049 14.34212622582911 IRIDIUM 3 [+] 1 25431U 98048A 09182.51258475 .00000020 00000-0 -18625-7 0 5685 2 25431 86.3946 30.8795 0002669 90.1023 270.0485 14.34219649568854 IRIDIUM 76 [+] 1 25432U 98048B 09182.53160858 .00000014 00000-0 -20465-5 0 4950 2 25432 86.3932 30.7189 0001827 92.6178 267.5238 14.34219675568844 IRIDIUM 82 [+] 1 25467U 98051A 09182.50099175 .00000011 00000-0 -30083-5 0 7252 2 25467 86.3996 157.1864 0003364 78.1434 282.0138 14.34213411569853 IRIDIUM 81 [+] 1 25468U 98051B 09182.49461853 .00000115 00000-0 33905-4 0 5557 2 25468 86.3985 157.0352 0002532 75.7787 284.3690 14.34214519566072 IRIDIUM 80 [+] 1 25469U 98051C 09182.47562181 -.00000008 00000-0 -98345-5 0 5500 2 25469 86.3992 157.1692 0002504 78.2659 281.8812 14.34213326566077 IRIDIUM 77 [+] 1 25471U 98051E 09182.48194793 -.00000005 00000-0 -89867-5 0 7254 2 25471 86.3977 157.0378 0002880 103.3961 256.7551 14.34213726571279 IRIDIUM 2 [-] 1 25527U 98066A 09182.35969180 .00000523 00000-0 41538-4 0 9817 2 25527 85.5627 272.4651 0011347 127.0495 233.1772 14.98008908580350 IRIDIUM 86 [+] 1 25528U 98066B 09182.37069192 .00000198 00000-0 63757-4 0 7727 2 25528 86.3974 125.3694 0003026 90.7806 269.3733 14.34216989562588 IRIDIUM 84 [+] 1 25530U 98066D 09182.40240922 .00000205 00000-0 66153-4 0 4376 2 25530 86.3976 125.4647 0002531 80.2870 279.8611 14.34216907560227 IRIDIUM 83 [+] 1 25531U 98066E 09182.50388154 -.00000048 00000-0 -24094-4 0 5475 2 25531 86.3980 125.4364 0002435 78.0900 282.0565 14.34215919557593 IRIDIUM 20 [+] 1 25577U 98074A 09182.56332286 -.00000002 00000-0 -76806-5 0 4899 2 25577 86.3940 30.6696 0002358 80.4281 279.7186 14.34219525551680 IRIDIUM 11 [S] 1 25578U 98074B 09182.54592663 .00000004 00000-0 -40989-5 0 6824 2 25578 86.5138 30.8839 0002452 79.2570 280.8921 14.54941122559635 IRIDIUM 14 [S] 1 25777U 99032A 09182.54210958 -.00000736 00000-0 -17641-3 0 6486 2 25777 86.5142 359.1904 0001783 75.5553 284.5846 14.54935528534012 IRIDIUM 21 [+] 1 25778U 99032B 09182.51553863 -.00000058 00000-0 -27699-4 0 5468 2 25778 86.3953 359.2123 0000946 146.6831 213.4409 14.34212876531356 IRIDIUM 91 [+] 1 27372U 02005A 09182.20527408 -.00000352 00000-0 -13265-3 0 1507 2 27372 86.3957 62.7535 0005217 42.7225 317.4374 14.34215406394821 IRIDIUM 90 [S] 1 27373U 02005B 09182.35044466 .00000207 00000-0 55863-4 0 1151 2 27373 86.4496 125.3283 0003793 333.3533 26.7464 14.42950147392033 IRIDIUM 94 [S] 1 27374U 02005C 09182.20959475 -.00001453 00000-0 -26629-3 0 1895 2 27374 86.5777 62.3204 0002630 78.3856 281.7645 14.66602513395217 IRIDIUM 95 [+] 1 27375U 02005D 09182.38286279 -.00000236 00000-0 -91476-4 0 1318 2 27375 86.3963 62.4834 0002353 81.5364 278.6099 14.34215756394137 IRIDIUM 96 [S] 1 27376U 02005E 09182.22182277 -.00001325 00000-0 -24319-3 0 1822 2 27376 86.5774 62.2710 0002678 77.0965 283.0547 14.66602859395215 IRIDIUM 97 [+] 1 27450U 02031A 09182.39897821 .00000165 00000-0 51700-4 0 373 2 27450 86.3963 94.2677 0004689 36.1108 324.0405 14.34216666373455 IRIDIUM 98 [S] 1 27451U 02031B 09182.44503533 -.00001389 00000-0 -42186-3 0 585 2 27451 86.4522 157.3295 0006163 62.2866 297.8954 14.42946202372905